Probability
0 0 0 0 0 0 0 0 0 0 0 0 0 0 0 0 0 0 0 0 0 0 0 0 0 0 0 0 0 0 0 0 0 0 0 0 0 0 0 0 0 0 0 0
0 0 0 0 0 0 0 0 0 0 0 0 0 0 0 0 0 0 0 0 0 0 0 0 0 0 0 0 0 0 0 0 0 0 0 0 0 0 0 0 0 0 0 0
0 0 0 0 0 0 0 0 0 0 0 0 0 0 0 0 0 0 0 0 0 0 0 0 0 0 0 0 0 0 0 0 0 0 0 0 0 0 0 0 0 0 0 0
0 0 0 0 0 0 0 0 0 0 0 0 0 0 0 0 0 0 0 0 0 0 0 0 0 0 0 0 0 0 0 0 0 0 0 0 0 0 0 0 0 0 0 0
0 0 0 0 0 0 0 0 0 0 0 0 0 0 0 0 0 0 0 0 0 0 0 0 0 0 0 0 0 0 0 0 0 0 0 0 0 0 0 0 0 0 0 0
0 0 0 0 0 0 0 0 0 0 0 0 0 0 0 0 0 0 0 0 0 0 0 0 0 0 0 0 0 0 0 0 0 0 0 0 0 0 0 0 0 0 0 0
0 0 0 0 0 0 0 0 0 0 0 0 0 0 0 0 0 0 0 0 0 0 0 0 0 0 0 0 0 0 0 0 0 0 0 0 0 0 0 0 0 0 0 0
0 0 0 0 0 0 0 0 0 0 0 0 0 0 0 0 0 0 0 0 0 0 0 0 0 0 0 0 0 0 0 0 0 0 0 0 0 0 0 0 0 0 0 0
0 0 0 0 0 0 0 0 0 0 0 0 0 0 0 0 0 0 0 0 0 0 0 0 0 0 0 0 0 0 0 0 0 0 0 0 0 0 0 0 0 0 0 0
0 0 0 0 0 0 0 0 0 0 0 0 0 0 0 0 0 0 0 0 0 0 0 0 0 0 0 0 0 0 0 0 0 0 0 0 0 0 0 0 0 0 0 0
0 0 0 0 0 0 0 0 0 0 0 0 0 0 0 0 0 0 0 0 0 0 0 0 0 0 0 0 0 0 0 0 0 0 0 0 0 0 0 0 0 0 0 0
0 0 0 0 0 0 0 0 0 0 0 0 0 0 0 0 0 0 0 0 0 0 0 0 0 0 0 0 0 0 0 0 0 0 0 0 0 0 0 0 0 0 0 0
0 0 0 0 0 0 0 0 0 0 0 0 0 0 0 0 0 0 0 0 0 0 0 0 0 0 0 0 0 0 0 0 0 0 0 0 0 0 0 0 0 0 0 0
0 0 0 0 0 0 0 0 0 0 0 0 0 0 0 0 0 0 0 0 0 0 0 0 0 0 0 0 0 0 0 0 0 0 0 0 0 0 0 0 0 0 0 0
0 0 0 0 0 0 0 0 0 0 0 0 0 0 0 0 0 0 0 0 0 0 0 0 0 0 0 0 0 0 0 0 0 0 0 0 0 0 0 0 0 0 0 0
0 0 0 0 0 0 0 0 0 0 0 0 0 0 0 0 0 0 0 0 0 0 0 0 0 0 0 0 0 0 0 0 0 0 0 0 0 0 0 0 0 0 0 0
0 0 0 0 0 0 0 0 0 0 0 0 0 0 0 0 0 0 0 0 0 0 0 0 0 0 0 0 0 0 0 0 0 0 0 0 0 0 0 0 0 0 0 0
0 0 0 0 0 0 0 0 0 0 0 0 0 0 0 0 0 0 0 0 0 0 0 0 0 0 0 0 0 0 0 0 0 0 0 0 0 0 0 0 0 0 0 0
0 0 0 0 0 0 0 0 0 0 0 0 0 0 0 0 0 0 0 0 0 0 0 0 0 0 0 0 0 0 0 0 0 0 0 0 0 0 0 0 0 0 0 0
0 0 0 0 0 0 0 0 0 0 0 0 0 0 0 0 0 0 0 0 0 0 0 0 0 0 0 0 0 0 0 0 0 0 0 0 0 0 0 0 0 0 0 0
0 0 0 0 0 0 0 0 0 0 0 0 0 0 0 0 0 0 0 0 0 0 0 0 0 0 0 0 0 0 0 0 0 0 0 0 0 0 0 0 0 0 0 0
0 0 0 0 0 0 0 0 0 0 0 0 0 0 0 0 0 0 0 0 0 0 0 0 0 0 0 0 0 0 0 0 0 0 0 0 0 0 0 0 0 0 0 0
0 0 0 0 0 0 0 0 0 0 0 0 0 0 0 0 0 0 0 0 0 0 0 0 0 0 0 0 0 0 0 0 0 0 0 0 0 0 0 0 0 0 0 0
0 0 0 0 0 0 0 0 0 0 0 0 0 0 0 0 0 0 0 0 0 0 0 0 0 0 0 0 0 0 0 0 0 0 0 0 0 0 0 0 0 0 0 0
0 0 0 0 0 0 0 0 0 0 0 0 0 0 0 0 0 0 0 0 0 0 0 0 0 0 0 0 0 0 0 0 0 0 0 0 0 0 0 0 0 0 0 0
0 0 0 0 0 0 0 0 0 0 0 0 0 0 0 0 0 0 0 0 0 0 0 0 0 0 0 0 0 0 0 0 0 0 0 0 0 0 0 0 0 0 0 0
0 0 0 0 0 0 0 0 0 0 0 0 0 0 0 0 0 0 0 0 0 0 0 0 0 0 0 0 0 0 0 0 0 0 0 0 0 0 0 0 0 0 0 0
Height
5817 5816 5815 5815 5814 5813 5812 5812 5811 5811 5810 5810 5809 5808 5809 5810 5811 5812 5813 5815 5816 5817 5818 5819 5819 5819 5818 5818 5816 5815 5813 5811 5809 5806 5804 5801 5799 5796 5794 5791 5788 5786 5783 5781
5813 5812 5810 5810 5810 5808 5807 5807 5806 5805 5806 5805 5803 5803 5804 5805 5806 5807 5809 5810 5812 5813 5814 5815 5815 5815 5815 5814 5814 5812 5811 5809 5807 5805 5803 5800 5798 5795 5792 5790 5787 5784 5782 5780
5809 5807 5806 5806 5805 5803 5802 5802 5801 5800 5801 5799 5798 5799 5799 5800 5801 5803 5804 5806 5807 5808 5809 5810 5811 5811 5811 5811 5810 5809 5808 5807 5805 5803 5801 5798 5796 5793 5791 5788 5785 5783 5780 5778
5803 5803 5801 5803 5800 5798 5797 5796 5795 5794 5794 5793 5793 5794 5795 5796 5797 5798 5799 5801 5802 5803 5805 5806 5806 5807 5807 5807 5806 5806 5805 5804 5802 5800 5798 5796 5794 5791 5789 5786 5784 5781 5779 5776
5797 5796 5795 5796 5794 5792 5791 5790 5789 5789 5789 5788 5789 5790 5790 5790 5791 5792 5794 5795 5797 5798 5799 5800 5801 5802 5802 5802 5802 5802 5801 5800 5799 5797 5795 5794 5791 5789 5787 5784 5781 5779 5777 5774
5790 5789 5789 5790 5788 5786 5787 5785 5784 5783 5783 5783 5784 5785 5785 5785 5786 5787 5788 5789 5791 5792 5793 5794 5795 5796 5797 5797 5797 5797 5796 5796 5795 5793 5792 5790 5788 5786 5784 5781 5779 5777 5774 5772
5783 5781 5780 5781 5780 5780 5780 5780 5778 5777 5777 5777 5777 5778 5779 5779 5780 5781 5782 5783 5784 5786 5787 5788 5789 5790 5790 5791 5791 5791 5791 5791 5790 5789 5788 5786 5785 5783 5781 5778 5776 5774 5771 5769
5775 5773 5774 5772 5771 5771 5771 5771 5770 5770 5770 5770 5770 5771 5772 5772 5773 5774 5775 5776 5777 5778 5780 5781 5782 5783 5784 5784 5785 5785 5785 5785 5784 5784 5783 5782 5780 5779 5777 5775 5773 5770 5768 5766
5766 5766 5763 5762 5761 5761 5761 5761 5761 5761 5762 5762 5762 5763 5764 5765 5765 5766 5767 5768 5769 5771 5772 5773 5774 5775 5776 5777 5778 5778 5778 5778 5778 5778 5777 5776 5775 5774 5772 5770 5768 5766 5764 5762
5754 5754 5752 5750 5749 5749 5750 5750 5751 5751 5752 5752 5753 5754 5755 5756 5757 5758 5759 5760 5761 5762 5763 5765 5766 5767 5768 5769 5770 5770 5771 5771 5771 5771 5771 5770 5769 5768 5767 5765 5763 5761 5759 5757
5741 5742 5740 5738 5737 5737 5737 5738 5739 5740 5741 5741 5742 5743 5744 5745 5747 5748 5749 5751 5752 5753 5754 5756 5757 5758 5759 5760 5761 5762 5763 5763 5763 5763 5763 5763 5762 5761 5760 5759 5758 5756 5754 5752
5727 5727 5725 5725 5724 5723 5723 5724 5725 5726 5728 5729 5729 5731 5733 5734 5736 5737 5739 5740 5742 5743 5745 5746 5747 5749 5750 5751 5752 5753 5754 5754 5755 5755 5755 5755 5755 5754 5753 5752 5751 5749 5747 5745
5710 5709 5708 5709 5708 5708 5709 5709 5710 5711 5713 5715 5716 5717 5719 5722 5723 5725 5727 5729 5731 5732 5734 5735 5737 5738 5740 5741 5742 5744 5745 5745 5746 5747 5747 5747 5747 5746 5745 5745 5743 5742 5740 5738
5693 5692 5691 5691 5691 5691 5692 5693 5694 5695 5697 5699 5701 5703 5705 5707 5710 5712 5714 5716 5718 5720 5722 5724 5726 5728 5729 5731 5732 5733 5735 5736 5737 5737 5738 5738 5738 5738 5737 5736 5735 5734 5733 5731
5676 5674 5674 5674 5673 5673 5673 5674 5676 5677 5679 5681 5684 5686 5688 5691 5694 5697 5700 5702 5704 5707 5709 5712 5714 5716 5718 5720 5721 5723 5724 5726 5727 5728 5728 5728 5728 5728 5728 5727 5726 5725 5724 5722
5657 5656 5655 5655 5655 5655 5655 5656 5657 5659 5661 5663 5665 5668 5671 5674 5677 5681 5684 5687 5690 5693 5696 5699 5702 5704 5706 5708 5710 5712 5713 5715 5716 5717 5718 5718 5718 5718 5718 5718 5717 5716 5715 5713
5639 5638 5637 5636 5636 5636 5636 5636 5637 5639 5641 5643 5646 5648 5651 5655 5659 5663 5667 5670 5674 5677 5681 5684 5688 5690 5693 5695 5697 5700 5702 5703 5705 5706 5707 5708 5708 5708 5708 5707 5707 5706 5705 5703
5621 5620 5619 5618 5617 5617 5617 5617 5618 5619 5620 5622 5625 5628 5631 5635 5639 5644 5648 5652 5656 5660 5665 5669 5672 5676 5679 5682 5684 5687 5689 5691 5693 5694 5695 5696 5696 5697 5697 5696 5696 5695 5694 5692
5605 5603 5602 5600 5599 5599 5599 5599 5599 5600 5601 5602 5604 5607 5611 5615 5619 5623 5628 5633 5638 5643 5648 5652 5656 5660 5664 5667 5670 5673 5676 5678 5680 5681 5683 5684 5684 5685 5685 5685 5684 5683 5682 5681
5588 5587 5585 5583 5582 5581 5581 5581 5581 5581 5582 5583 5585 5588 5591 5595 5598 5603 5608 5614 5619 5625 5629 5634 5638 5643 5648 5652 5655 5658 5661 5664 5666 5668 5670 5671 5672 5672 5672 5672 5672 5671 5670 5668
5573 5571 5569 5567 5566 5565 5564 5563 5563 5564 5565 5565 5567 5569 5572 5576 5579 5583 5588 5595 5601 5605 5610 5616 5621 5626 5631 5636 5640 5643 5647 5650 5652 5654 5656 5658 5659 5659 5660 5660 5659 5658 5657 5655
5558 5556 5554 5552 5551 5550 5548 5547 5547 5548 5548 5549 5550 5552 5554 5558 5561 5565 5570 5576 5582 5587 5592 5598 5604 5609 5615 5620 5624 5628 5632 5635 5638 5640 5642 5644 5645 5646 5646 5646 5646 5645 5644 5642
5544 5542 5540 5538 5537 5536 5535 5533 5532 5532 5533 5534 5535 5536 5538 5541 5544 5548 5553 5558 5564 5569 5575 5581 5587 5593 5598 5603 5607 5612 5616 5620 5623 5625 5627 5629 5630 5631 5632 5632 5632 5631 5630 5628
5530 5528 5526 5525 5523 5522 5521 5520 5519 5518 5519 5519 5520 5521 5523 5525 5528 5532 5537 5542 5547 5553 5559 5565 5571 5576 5581 5587 5592 5596 5600 5604 5607 5610 5612 5614 5616 5617 5618 5618 5617 5617 5616 5614
5516 5515 5513 5512 5510 5509 5508 5507 5507 5506 5505 5506 5507 5508 5509 5511 5514 5518 5522 5527 5532 5537 5543 5549 5555 5560 5566 5571 5576 5581 5585 5589 5592 5595 5597 5599 5601 5602 5603 5603 5603 5602 5601 5600
5502 5501 5500 5499 5497 5496 5495 5495 5494 5494 5493 5494 5495 5495 5496 5498 5500 5504 5508 5513 5517 5522 5528 5533 5539 5545 5551 5556 5561 5565 5569 5573 5576 5579 5582 5584 5586 5587 5588 5588 5588 5588 5587 5585
5489 5488 5487 5486 5485 5484 5483 5483 5482 5482 5482 5482 5483 5484 5485 5486 5489 5492 5496 5500 5505 5509 5514 5520 5525 5531 5536 5541 5546 5550 5554 5557 5561 5564 5567 5569 5571 5572 5573 5574 5573 5573 5572 5571
Wind_Speed
16 17 18 18 19 19 20 20 20 17 17 16 19 19 18 18 18 18 18 18 17 17 16 14 13 12 10 9 8 8 9 9 9 10 10 11 12 12 13 13 13 13 13 12
16 18 18 18 18 19 19 19 19 19 17 18 20 20 19 18 18 18 18 18 18 18 17 16 14 13 12 10 9 9 9 8 9 10 10 11 12 13 13 13 14 14 14 13
17 19 19 18 17 19 19 19 19 18 17 19 20 20 19 18 18 18 19 19 19 18 18 17 16 14 13 12 11 10 9 9 9 10 10 11 12 13 13 13 14 14 14 14
19 20 21 18 19 19 20 20 20 19 19 20 20 19 19 18 18 19 20 20 20 19 19 18 17 16 15 14 13 12 11 10 10 10 11 11 12 13 13 13 14 14 14 14
23 23 21 20 21 21 21 21 22 21 21 21 20 19 19 20 20 20 20 20 20 20 20 19 19 18 17 16 15 14 13 12 12 11 11 12 12 13 13 14 14 14 14 14
27 27 25 23 24 24 24 24 24 24 23 23 22 21 22 22 22 21 22 22 22 22 21 21 21 20 19 19 18 16 15 14 13 13 12 12 13 13 14 14 14 14 15 15
30 31 30 28 27 26 27 26 26 26 25 25 24 23 23 23 23 23 23 23 23 23 23 23 22 22 21 21 20 19 17 17 15 15 14 13 13 14 14 14 15 15 15 16
33 34 34 32 32 31 30 29 29 28 28 27 26 26 25 25 25 25 25 25 25 25 25 24 24 24 23 23 22 21 20 19 18 17 16 15 15 15 15 15 16 16 16 17
36 36 37 36 36 35 34 33 32 32 31 30 30 29 28 28 28 28 28 27 27 27 26 26 26 26 26 25 24 23 22 21 20 19 18 17 17 16 16 16 16 17 17 18
39 38 39 40 40 39 39 37 36 36 35 34 33 33 32 31 31 30 30 30 29 29 28 28 28 28 27 27 26 25 24 23 22 21 21 20 19 19 18 18 18 18 19 19
42 41 42 43 43 43 43 42 41 40 39 39 38 36 36 35 34 33 33 32 32 31 30 30 30 30 29 29 28 27 27 26 25 24 23 22 22 21 21 20 20 20 20 21
45 44 45 45 46 47 47 46 45 44 43 42 42 40 39 38 38 37 36 35 35 34 33 32 32 32 31 31 30 30 29 28 27 26 26 25 24 23 23 23 22 22 22 23
48 48 49 49 49 49 50 50 49 48 47 46 46 45 43 42 41 40 39 38 38 37 36 36 35 34 34 33 33 32 31 30 29 29 28 27 27 26 25 25 25 25 25 25
50 50 51 51 51 51 52 52 52 52 51 50 49 49 48 47 45 43 42 41 41 40 40 39 38 37 36 36 35 34 33 33 32 31 30 30 29 28 27 27 27 27 27 27
52 52 52 52 52 53 53 54 54 54 54 54 53 52 52 51 50 48 46 45 44 43 42 41 40 39 38 38 37 37 36 35 34 33 32 32 31 30 30 29 29 29 30 30
54 54 54 53 53 53 53 54 54 54 55 54 55 55 54 54 53 52 50 49 48 46 45 44 43 41 41 40 40 39 38 37 36 35 34 34 33 33 32 32 32 32 32 32
54 53 53 53 53 53 53 54 54 54 55 55 55 56 56 56 55 54 53 52 51 50 49 47 46 45 44 43 42 41 40 39 38 37 37 36 36 35 35 34 34 34 34 35
52 52 52 52 51 51 51 51 52 52 53 54 55 56 56 57 57 56 55 54 54 54 53 51 49 48 47 46 45 44 43 42 41 40 39 38 38 38 37 37 37 37 37 37
49 49 49 50 49 49 49 50 50 51 51 52 53 54 55 56 57 58 57 56 55 55 54 54 52 51 50 49 48 47 46 45 43 42 41 40 40 40 39 39 39 39 39 39
47 46 47 47 47 47 47 48 48 48 49 50 51 52 53 55 55 57 57 57 56 56 56 55 55 54 52 51 50 50 49 47 46 44 43 42 42 41 41 41 41 41 41 42
44 44 44 44 45 45 46 45 45 45 45 46 47 49 50 51 53 54 56 56 56 56 56 57 56 56 54 53 52 52 51 50 48 47 46 45 44 44 44 44 44 44 44 44
42 42 42 42 43 42 42 42 42 42 42 43 44 45 48 48 50 52 53 54 54 55 55 56 57 57 56 55 54 53 53 51 50 49 48 47 46 45 45 45 45 45 45 45
42 41 40 40 40 40 39 39 40 40 40 40 41 41 44 45 47 49 50 51 53 54 54 54 55 57 58 57 55 54 54 53 52 51 50 49 48 48 47 47 46 46 46 46
42 40 39 39 39 37 37 37 37 38 38 38 38 39 40 41 43 46 47 49 50 52 53 53 53 54 55 56 56 56 55 54 54 53 51 50 49 48 47 47 47 47 47 47
41 40 39 38 37 37 36 36 36 35 35 35 35 36 37 38 40 42 43 44 46 49 52 53 53 54 54 54 55 55 56 55 54 53 52 51 49 49 48 48 48 48 47 47
40 39 39 38 37 37 36 35 34 33 33 32 33 33 34 34 35 38 40 41 42 45 48 50 50 52 53 53 53 53 53 53 52 51 50 50 49 48 48 47 47 47 47 47
40 39 38 37 36 36 35 34 33 32 32 31 31 31 31 32 33 34 37 37 38 41 45 47 48 49 50 50 51 52 54 54 54 52 51 50 49 48 47 46 47 47 47 47
Wind_Direction
268 270 271 272 274 275 276 277 278 275 269 261 260 259 257 252 247 244 241 239 238 239 242 247 252 257 265 276 291 306 317 327 336 341 345 347 347 347 347 347 347 347 345 344
275 274 274 273 273 275 276 276 276 274 270 261 258 259 256 252 248 244 241 240 240 241 243 246 250 255 260 268 280 294 306 315 324 332 337 340 342 343 343 344 344 345 344 342
280 278 277 276 273 273 275 275 275 272 265 259 258 257 256 252 247 243 240 240 241 243 244 245 249 253 257 264 272 282 293 303 312 322 329 333 336 338 339 340 341 342 342 340
284 280 278 279 273 271 271 271 272 270 265 261 259 256 255 252 247 244 241 240 241 243 244 245 248 251 256 261 266 273 282 291 300 310 319 325 330 334 335 336 338 339 339 337
283 282 281 277 273 269 267 267 268 268 266 264 261 257 253 249 245 242 240 240 241 243 244 246 248 251 255 258 262 267 273 281 289 298 307 314 321 327 331 333 334 334 334 334
281 280 280 278 274 271 268 266 267 267 266 265 262 256 251 249 245 242 241 241 242 243 244 246 248 250 253 256 259 263 267 273 280 289 297 304 312 319 324 327 329 328 329 330
279 278 278 276 274 271 268 268 268 267 266 264 262 259 254 251 248 245 244 244 244 244 245 247 248 250 252 254 257 260 263 268 273 280 288 294 302 309 314 319 322 323 324 325
276 276 276 276 273 270 269 268 266 264 264 263 262 260 257 253 250 247 246 245 245 245 246 247 248 249 251 252 255 258 260 264 268 274 280 286 292 299 305 310 315 318 320 321
275 274 275 274 272 271 269 267 265 263 263 262 261 260 258 256 252 250 248 247 247 247 247 248 248 248 250 251 253 256 258 261 264 269 274 279 285 291 296 303 308 313 316 317
275 274 273 272 271 269 267 265 264 263 262 262 261 259 257 256 255 253 250 249 247 248 248 248 248 248 249 251 252 254 256 259 262 265 270 274 279 284 289 295 301 306 310 312
276 274 271 269 269 268 267 266 264 261 261 260 259 259 258 256 254 254 253 251 249 248 248 248 248 249 249 250 251 253 255 257 260 263 267 271 275 279 284 289 294 299 303 307
276 273 270 268 267 267 266 265 263 262 260 259 259 258 257 256 255 254 253 253 251 250 249 249 249 249 249 250 251 252 254 256 259 262 265 268 272 276 280 285 289 293 298 301
275 273 270 268 266 265 264 264 262 261 260 258 257 257 256 256 255 254 253 253 252 251 250 249 249 249 249 250 250 251 253 255 258 261 264 267 270 273 277 281 286 290 294 297
275 273 271 270 268 265 264 262 261 259 258 257 256 255 255 255 254 254 253 252 251 250 250 249 249 249 250 250 250 251 252 255 257 260 262 266 269 272 275 279 283 287 290 294
278 276 274 272 270 268 266 264 262 259 258 256 255 254 253 253 253 252 251 250 250 250 249 249 249 249 249 250 250 251 252 255 257 259 262 265 268 271 274 277 281 284 288 291
279 277 276 274 272 270 268 266 263 261 258 256 255 253 252 252 251 251 250 249 248 248 248 248 248 248 248 248 250 251 252 254 257 259 262 265 268 270 273 277 280 283 287 290
280 279 278 276 274 272 271 269 267 264 260 257 255 254 252 250 249 249 248 247 247 246 245 246 246 246 247 248 249 250 252 254 257 259 262 265 267 270 273 277 280 283 286 289
281 280 279 277 275 273 272 270 268 266 264 260 257 255 252 250 248 246 246 246 245 244 244 244 244 245 246 248 249 250 252 255 257 260 262 264 267 270 273 277 280 283 286 289
281 280 279 278 277 275 272 270 269 267 265 262 258 255 252 250 248 245 244 243 244 244 243 242 243 244 245 246 248 250 252 254 257 259 262 264 267 270 273 276 280 283 286 289
282 281 280 279 278 277 275 272 270 267 265 263 260 256 253 249 247 245 243 242 241 242 241 240 240 241 243 244 247 249 251 253 256 259 262 264 267 270 273 276 279 283 286 288
283 282 280 279 279 278 276 274 272 269 265 262 260 256 253 250 246 244 242 241 240 240 241 240 239 239 241 243 245 247 250 252 255 258 261 264 267 270 273 276 279 282 285 287
283 282 281 280 280 279 277 274 273 271 267 264 261 257 252 250 246 244 242 240 239 239 239 240 239 239 239 241 243 246 249 252 255 258 261 264 267 270 273 276 279 282 284 287
282 282 281 282 281 279 277 275 274 272 269 266 263 260 254 250 247 243 240 239 239 238 238 238 239 240 239 239 242 244 247 250 253 257 260 263 266 269 273 276 279 282 284 286
281 281 282 282 281 280 279 276 275 273 270 267 264 261 256 252 247 244 241 239 238 236 236 237 238 239 240 241 242 243 246 249 253 256 260 263 267 270 273 276 279 281 284 286
279 279 280 280 280 280 279 277 275 274 271 268 265 262 258 253 248 244 241 239 237 235 234 234 235 236 237 240 242 244 247 250 253 256 259 262 266 269 272 275 278 281 283 285
278 278 278 278 279 279 278 276 275 272 270 267 263 261 257 253 248 242 239 237 236 235 233 232 233 235 237 239 242 244 247 250 253 256 259 262 266 270 272 275 277 279 281 283
277 277 277 277 277 277 277 276 275 271 268 265 262 259 256 253 248 242 237 236 237 235 234 233 233 235 237 239 242 245 248 251 253 256 259 262 266 268 270 273 276 277 279 281